Jiaotong-6

operational
NORAD ID: 57626 Int'l Des: 2023-121 Owner: HEAD Country: CN
LEOCIRCULAR

Über Jiaotong-6

Beschreibung wird geladen...

Live-Position

3D-Globus wird geladen...

Nächste Überflüge

Höhenverlauf

Altitude vs Time

uPlot chart will show altitude changes over time

Zweizeiliger Elementsatz

1 57626U 23121A 25340.93331377 .00000993 00000-0 23632-3 0 9995
2 57626 45.0013 176.8122 0006763 0.0655 0.0202 14.60249576123471
Epoch: 6. Dez. 2025 • Age: 9 hours

Aktueller Status

Höhe 696.0 km
Geschwindigkeit 7.51 km/s
Subsatellitenpunkt 18.42°N, 149.69°E
Startdatum 14. Aug. 2023
Alter 2.3 years
Typ other

Technische Details

Klassifizierung Payload
Masse 40.00 kg
Trockenmasse 40.00 kg
Gesamtmasse 40.00 kg
Länge 0.50 m
Durchmesser 0.20 m
Spannweite 2.00 m
Form Box + 2 Pan
Hersteller IMICAS
Bus-Typ WN100
Phasenstatus In Orbit
Besitzer/Staat HEAD/CN

Große Konstellationen

Loading constellations...